TimeCDT,TemperatureF,Dew PointF,Humidity,Sea Level PressureIn,VisibilityMPH,Wind Direction,Wind SpeedMPH,Gust SpeedMPH,PrecipitationIn,Events,Conditions,WindDirDegrees,DateUTC
12:15 AM,50.0,48.2,94,30.02,7.0,Calm,Calm,-,N/A,,Clear,0,2012-11-01 05:15:00
12:35 AM,50.0,48.2,94,30.02,5.0,Calm,Calm,-,N/A,,Clear,0,2012-11-01 05:35:00
12:55 AM,50.0,46.4,87,30.02,7.0,Calm,Calm,-,N/A,,Clear,0,2012-11-01 05:55:00
1:15 AM,50.0,46.4,87,30.02,10.0,Calm,Calm,-,N/A,,Clear,0,2012-11-01 06:15:00
1:35 AM,46.4,46.4,100,30.02,10.0,Calm,Calm,-,N/A,,Clear,0,2012-11-01 06:35:00
1:55 AM,46.4,46.4,100,30.03,10.0,Calm,Calm,-,N/A,,Clear,0,2012-11-01 06:55:00
2:15 AM,48.2,46.4,93,30.02,10.0,Calm,Calm,-,N/A,,Clear,0,2012-11-01 07:15:00
2:35 AM,48.2,46.4,93,30.02,10.0,Calm,Calm,-,N/A,,Clear,0,2012-11-01 07:35:00
2:55 AM,48.2,46.4,93,30.02,10.0,Calm,Calm,-,N/A,,Clear,0,2012-11-01 07:55:00
3:15 AM,46.4,44.6,93,30.02,5.0,Calm,Calm,-,N/A,,Clear,0,2012-11-01 08:15:00
3:35 AM,46.4,44.6,93,30.02,7.0,Calm,Calm,-,N/A,,Clear,0,2012-11-01 08:35:00
3:55 AM,44.6,44.6,100,30.01,7.0,Calm,Calm,-,N/A,,Clear,0,2012-11-01 08:55:00
4:15 AM,46.4,44.6,93,30.01,10.0,Calm,Calm,-,N/A,,Clear,0,2012-11-01 09:15:00
4:35 AM,44.6,44.6,100,30.01,7.0,Calm,Calm,-,N/A,,Clear,0,2012-11-01 09:35:00
4:55 AM,44.6,42.8,93,30.01,10.0,Calm,Calm,-,N/A,,Clear,0,2012-11-01 09:55:00
5:15 AM,44.6,42.8,93,30.01,10.0,Calm,Calm,-,N/A,,Clear,0,2012-11-01 10:15:00
5:35 AM,44.6,42.8,93,30.01,10.0,Calm,Calm,-,N/A,,Clear,0,2012-11-01 10:35:00
5:55 AM,44.6,42.8,93,30.02,5.0,Calm,Calm,-,N/A,,Clear,0,2012-11-01 10:55:00
6:15 AM,44.6,42.8,93,30.02,7.0,Calm,Calm,-,N/A,,Clear,0,2012-11-01 11:15:00
6:35 AM,44.6,42.8,93,30.02,10.0,Calm,Calm,-,N/A,,Clear,0,2012-11-01 11:35:00
6:55 AM,44.6,42.8,93,30.02,7.0,Calm,Calm,-,N/A,,Clear,0,2012-11-01 11:55:00
7:15 AM,44.6,42.8,93,30.03,10.0,Calm,Calm,-,N/A,,Clear,0,2012-11-01 12:15:00
7:35 AM,44.6,42.8,93,30.03,10.0,Calm,Calm,-,N/A,,Clear,0,2012-11-01 12:35:00
7:55 AM,44.6,42.8,93,30.04,10.0,Calm,Calm,-,N/A,,Clear,0,2012-11-01 12:55:00
8:15 AM,46.4,44.6,93,30.05,7.0,Calm,Calm,-,N/A,,Clear,0,2012-11-01 13:15:00
8:35 AM,48.2,46.4,93,30.06,10.0,Calm,Calm,-,N/A,,Clear,0,2012-11-01 13:35:00
8:55 AM,51.8,50.0,94,30.06,10.0,Calm,Calm,-,N/A,,Clear,0,2012-11-01 13:55:00
9:15 AM,55.4,51.8,88,30.06,10.0,Calm,Calm,-,N/A,,Clear,0,2012-11-01 14:15:00
9:35 AM,62.6,53.6,72,30.06,5.0,Calm,Calm,-,N/A,,Haze,0,2012-11-01 14:35:00
9:55 AM,66.2,53.6,64,30.06,1.0,Calm,Calm,-,N/A,,Haze,0,2012-11-01 14:55:00
10:15 AM,68.0,53.6,60,30.06,2.0,Calm,Calm,-,N/A,,Haze,0,2012-11-01 15:15:00
10:35 AM,69.8,53.6,56,30.07,3.0,SE,3.5,-,N/A,,Haze,130,2012-11-01 15:35:00
10:55 AM,71.6,53.6,53,30.06,1.8,Calm,Calm,-,N/A,,Haze,0,2012-11-01 15:55:00
11:15 AM,73.4,53.6,50,30.06,10.0,Calm,Calm,-,N/A,,Clear,0,2012-11-01 16:15:00
11:35 AM,77.0,53.6,44,30.06,10.0,SSE,3.5,-,N/A,,Clear,150,2012-11-01 16:35:00
11:55 AM,77.0,53.6,44,30.06,3.0,Calm,Calm,-,N/A,,Haze,0,2012-11-01 16:55:00
12:15 PM,78.8,53.6,42,30.05,10.0,South,3.5,-,N/A,,Clear,190,2012-11-01 17:15:00
12:35 PM,78.8,51.8,39,30.04,7.0,Calm,Calm,-,N/A,,Clear,0,2012-11-01 17:35:00
12:55 PM,80.6,46.4,30,30.03,10.0,SSE,3.5,-,N/A,,Clear,160,2012-11-01 17:55:00
1:15 PM,80.6,50.0,34,30.02,10.0,SSW,3.5,-,N/A,,Clear,210,2012-11-01 18:15:00
1:35 PM,80.6,50.0,34,30.01,10.0,WSW,3.5,-,N/A,,Clear,250,2012-11-01 18:35:00
1:55 PM,82.4,50.0,32,30.00,10.0,West,5.8,-,N/A,,Clear,260,2012-11-01 18:55:00
2:15 PM,80.6,50.0,34,29.99,10.0,West,4.6,-,N/A,,Clear,270,2012-11-01 19:15:00
2:35 PM,82.4,50.0,32,29.98,10.0,Calm,Calm,-,N/A,,Clear,0,2012-11-01 19:35:00
2:55 PM,82.4,50.0,32,29.97,10.0,Calm,Calm,-,N/A,,Clear,0,2012-11-01 19:55:00
3:15 PM,82.4,50.0,32,29.96,10.0,Calm,Calm,-,N/A,,Clear,0,2012-11-01 20:15:00
3:35 PM,82.4,50.0,32,29.96,10.0,West,5.8,-,N/A,,Clear,260,2012-11-01 20:35:00
3:55 PM,82.4,50.0,32,29.96,10.0,Calm,Calm,-,N/A,,Clear,0,2012-11-01 20:55:00
4:15 PM,82.4,48.2,30,29.96,10.0,SW,4.6,-,N/A,,Clear,230,2012-11-01 21:15:00
4:35 PM,82.4,46.4,28,29.96,10.0,North,-9999.0,-,N/A,,Clear,0,2012-11-01 21:35:00
4:55 PM,82.4,48.2,30,29.96,10.0,SW,4.6,-,N/A,,Clear,220,2012-11-01 21:55:00
5:15 PM,82.4,50.0,32,29.96,10.0,SW,3.5,-,N/A,,Clear,220,2012-11-01 22:15:00
5:35 PM,80.6,50.0,34,29.95,10.0,Calm,Calm,-,N/A,,Clear,0,2012-11-01 22:35:00
5:55 PM,77.0,53.6,44,29.96,10.0,Calm,Calm,-,N/A,,Clear,0,2012-11-01 22:55:00
6:15 PM,71.6,55.4,57,29.96,10.0,Calm,Calm,-,N/A,,Clear,0,2012-11-01 23:15:00
6:35 PM,69.8,55.4,60,29.96,10.0,Calm,Calm,-,N/A,,Clear,0,2012-11-01 23:35:00
6:55 PM,68.0,55.4,64,29.96,10.0,Calm,Calm,-,N/A,,Clear,0,2012-11-01 23:55:00
7:15 PM,64.4,55.4,73,29.97,10.0,Calm,Calm,-,N/A,,Clear,0,2012-11-02 00:15:00
7:35 PM,62.6,55.4,77,29.97,10.0,Calm,Calm,-,N/A,,Clear,0,2012-11-02 00:35:00
7:55 PM,62.6,55.4,77,29.97,10.0,Calm,Calm,-,N/A,,Clear,0,2012-11-02 00:55:00
8:15 PM,60.8,55.4,82,29.97,10.0,Calm,Calm,-,N/A,,Clear,0,2012-11-02 01:15:00
8:35 PM,62.6,55.4,77,29.97,10.0,Calm,Calm,-,N/A,,Clear,0,2012-11-02 01:35:00
8:55 PM,60.8,55.4,82,29.98,10.0,Calm,Calm,-,N/A,,Clear,0,2012-11-02 01:55:00
9:15 PM,60.8,55.4,82,29.98,10.0,Calm,Calm,-,N/A,,Clear,0,2012-11-02 02:15:00
9:35 PM,60.8,55.4,82,29.97,10.0,Calm,Calm,-,N/A,,Clear,0,2012-11-02 02:35:00
9:55 PM,62.6,55.4,77,29.97,7.0,South,3.5,-,N/A,,Clear,180,2012-11-02 02:55:00
10:15 PM,62.6,55.4,77,29.98,3.0,Calm,Calm,-,N/A,,Haze,0,2012-11-02 03:15:00
10:35 PM,60.8,53.6,77,29.98,10.0,Calm,Calm,-,N/A,,Clear,0,2012-11-02 03:35:00
10:55 PM,62.6,55.4,77,29.98,7.0,Calm,Calm,-,N/A,,Clear,0,2012-11-02 03:55:00
11:15 PM,62.6,53.6,72,29.98,10.0,Calm,Calm,-,N/A,,Clear,0,2012-11-02 04:15:00
11:35 PM,60.8,53.6,77,29.98,10.0,Calm,Calm,-,N/A,,Clear,0,2012-11-02 04:35:00
11:55 PM,59.0,53.6,82,29.97,10.0,Calm,Calm,-,N/A,,Clear,0,2012-11-02 04:55:00